FENGYUN 1C DEB

Satellite information

Favourite Embed

Satellite Type and Status

DEBRISIN ORBIT

Key statistics

Satellite FENGYUN 1C DEB at a glance.

Uptime

9663

Days in orbit

Revolutions

≈ 14.0

Per day

Orbit

SSO

Sun Synchronous Orbit

Inclination

98.9

Latest

Satellite identification and parameters

Extended collection of information and parameters for FENGYUN 1C DEB.

Object identification

Identified? True

Debris? True

Object name: FENGYUN 1C DEB

International designator: 1999-025EZS

Object number (NORAD): 46992

Object ID (CCSDS): 46992

Country: PEOPLES REPUBLIC OF CHINA (PRC)

Current information (Y/N): Y

RCS size: SMALL

Orbital parameters

Period: 102.813 minutes

Inclination: 98.8869 deg

SMA: 7269.838 km

Apoapsis: 943.854 km

Periapsis: 839.553 km

RAAN: 281.8648 deg

Eccentricy: 0.00717355

Argument of periapsis: 308.6304 deg

Mean anomaly: 50.8454 deg

Mean motion: 14.00604871 rev/day

Mean motion (dot): 0.00000882 rev/day2

B* drag term: 0.0006089593 1/REarth

Two-line elements (TLE)

Creation date: Oct. 21, 2025, 3:26 a.m.

Reference frame: TEME

Reference center: EARTH

Epoch: Oct. 20, 2025, 4:23 p.m. UTC

TLE line 0: 0 FENGYUN 1C DEB

TLE line 1: 1 46992U 99025EZS 25293.68279269 .00000882 00000-0 60896-3 0 9995

TLE line 2: 2 46992 98.8869 281.8648 0071736 308.6304 50.8454 14.00604871602145

Live tracking on map

Real-time ground track for satellite FENGYUN 1C DEB.

In-orbit conjunctions

A list of the most updated potential collisions computed for object FENGYUN 1C DEB.

Target Orbit TCA Probability of collision Miss distance Type
TRANSIT 4B LEO 2024-07-12 07:42:50 0.0002579065 333.0 (m) PAYLOAD

Associated space launch

Chinese polar orbiting meteorological satellite

FENGYUN 1C DEB was lifted into orbit during the mission ‘Long March 4B | Feng Yun 1C’, on board a Long March 4B space rocket.

The launch took place on May 10, 1999, 1:33 a.m. from Launch Complex 7.

For more information about the launch, click the button.

Launch to space Long March 4B | Feng Yun 1C
Long March 4B | Feng Yun 1C

Agency: N/A

Status: Launch Successful

Launch date: May 10, 1999, 1:33 a.m. UTC

Rocket: Long March 4B

Launch pad: Launch Complex 7

Location: Taiyuan Satellite Launch Center, People's Republic of China

...

Latest news about this satellite

There are no fresh news available about this satellite. Check back as we update our databases every day.


Newsletter sign-up

Weekly statistics, charts and insights to help you stay on top of the space industry.